星链-31054 (STARLINK-31054 )

导读

STARLINK-31054是美国太空探索技术公司(SpaceX)星链星座的成员卫星,于2023年12月23日发射入轨。星链星座旨在为全球提供高速低延迟宽带互联网服务,该卫星采用平板设计,搭载霍尔推进器,具备自主避撞能力,服役期满后会受控离轨坠入大气层焚毁。

基本信息
目录编号:
58619
目录名称:
STARLINK-31054
国际标识:
2023-203B
轨道中心:
EARTH
卫星名称:
星链-31054
卫星全名:
星链-31054 (STARLINK-31054 )
卫星状态:
在轨 (已飞行986 天)
发射日期:
2023-12-23 UTC
国别 :
美国 (US)
星等 :
--
轨道信息
数据来源 国际轨道数据
星历时间: 2026-09-02T03:13:31+0800
2天前
查看轨道信息
半长轴: 6861.279km
偏心率: 0.0000979
轨道倾角: 43.006°
近地点辐角 255.468°
升交点赤经 152.658°
平近点角 104.606°
近地点: 482.47km
远地点: 483.814km
周期: 94.269分钟
每日圈数: 15.27549
详细信息
固有亮度:
5
最大亮度:
0.3
卫星平台:
Starlink v2.0 mini
覆盖范围:
全球
运营商:
太空探索技术公司
运营商所在国:
美国
制造商(研发单位):
太空探索技术公司
制造商所在国:
美国
使用方式:
暂无
卫星简介
星链(Starlink)计划是由太空探索技术公司(SpaceX)提出的一个巨型低轨卫星互联网星座项目,计划在2019年至2024年间在太空搭建由约1.2万颗卫星组成的“星链”网络,其中1584颗将部署在地球上空550千米处的近地轨道,并从2020年开始工作。该卫星仍在工作。
2D轨道图
3D轨道图
轨道高度分析图
轨道倾角分析图
轨道综合分析图
查看轨道综合分析图